sat.trackr.live / text

‹ back to catalog

STARLINK-3669

NORAD 51971 · 2022-025R

PAYLOAD ACTIVE UNKNOWN

§ Identity

Operator
Country
US
Launch date
2022-03-09
Launch site
AFETR
Launch vehicle
Mass (kg)
RCS (m²)

Purposes: comms

External: N2YO · Heavens-Above · Gunter

§ Orbital elements

Epoch: 2026-05-25T01:27:43.691040Z

Period
94.01 min
Inclination
53.1620°
Eccentricity
0.0001663
Mean motion
15.31708307 rev/d
Perigee alt
469.6 km
Apogee alt
471.9 km
Semi-major
6,848.9 km
B*
-4.5217e-5
RAAN
29.2859°
Arg perigee
88.6250°
Mean anomaly
271.4942°
Rev number
23,271

§ Raw data

STARLINK-36691 51971U 22025R   26145.06092235 -.00001769  00000+0 -45217-4 0  99962 51971  53.1620  29.2859 0001663  88.6250 271.4942 15.31708307232711

JSON: /api/v1/satellites/51971 · /tle

For live sub-satellite position, see the globe view (requires WebGL).

§ Visibility from observer

Set your observer location to see the next 7 days of passes ≥ 10°. The values pass through the URL so the page stays shareable.

No JS? Fill the form by hand. The geolocation button needs JavaScript.